Miscellaneous Local Product
Issued by NWS Hastings, NE

Home | Current Version | Previous Version | Text Only | Print | Product List | Glossary On
Versions: 1 2 3 4 5 6 7 8 9 10 11 12 13 14 15 16 17 18 19 20 21 22 23 24 25 26 27 28 29 30 31 32 33 34 35 36 37 38 39 40 41 42 43 44 45 46 47 48 49 50
000
AXUS43 KGID 050602
MISGRI

GID CWA HOURLY WEATHER ROUNDUP
NATIONAL WEATHER SERVICE HASTINGS NE
1200 AM CST THU MAR 05 2015

NOTE: "FAIR" INDICATES FEW OR NO CLOUDS BELOW 12,000 FEET WITH NO
SIGNIFICANT WEATHER AND/OR OBSTRUCTIONS TO VISIBILITY.

...SOUTH CENTRAL NEBRASKA...

CITY           SKY/WX    TMP DP  RH WIND       PRES   REMARKS
GRAND ISLAND   CLEAR      7  -3  64 N6        30.43R WCI  -3
HASTINGS       CLEAR      8  -1  66 NE3       30.41R
KEARNEY        CLEAR      9   0  66 CALM      30.40S
ORD            CLEAR      1  -6  72 SW5       30.39F WCI  -9
YORK           CLEAR      9   0  66 NE5       30.44R WCI   0
AURORA         CLEAR      5  -3  69 NE5       30.42S WCI  -4
LEXINGTON      CLEAR     11   2  66 E5        30.38S WCI   3
HOLDREGE       PTCLDY     9   1  69 NE10      30.38S WCI  -5
HEBRON         CLEAR     13   1  57 CALM      30.45R

...NEBRASKA PANHANDLE...

CITY           SKY/WX    TMP DP  RH WIND       PRES   REMARKS
CHADRON        PTCLDY    -3  -7  82 SW6       30.27S WCI -15
ALLIANCE       CLEAR      3  -2  79 CALM      30.23S
SCOTTSBLUFF    CLEAR     10   2  69 CALM      30.24S
SIDNEY         CLEAR      9   2  73 W10       30.25R WCI  -5

...WESTERN AND NORTH CENTRAL NEBRASKA...

CITY           SKY/WX    TMP DP  RH WIND       PRES   REMARKS
VALENTINE      CLEAR     -1  -5  82 SW7       30.34S WCI -14
AINSWORTH      MOCLDY     3  -2  80 SW3       30.34S
ONEILL         CLEAR      2  -4  74 CALM      30.40S
BROKEN BOW     CLEAR      1  -6  72 CALM      30.36S
IMPERIAL         N/A     15   7  70 CALM      30.31S
NORTH PLATTE   CLEAR      6  -2  69 E3        30.34S
MCCOOK         PTCLDY    15   4  61 CALM      30.36R

...EASTERN NEBRASKA...

CITY           SKY/WX    TMP DP  RH WIND       PRES   REMARKS
NORFOLK        CLEAR      2  -6  69 CALM      30.43S
SO SIOUX CITY  CLEAR      1  -6  72 W3        30.48S
TEKAMAH        CLEAR      6  -4  63 NE3       30.49F
COLUMBUS       CLEAR      5 -11  47 E3        30.46R
ALBION         PTCLDY     4  -5  66 NW3       30.42S
OMAHA EPPLEY   CLEAR      8  -2  63 N8        30.49S WCI  -4
OFFUTT AFB     CLEAR     10  -2  60 NE3       30.47S
MILLARD        CLEAR     11  -2  54 CALM      30.48F
LINCOLN        CLEAR      7  -3  64 N5        30.48S WCI  -2
NEBRASKA CITY  CLEAR     11  -3  55 NE9       30.46S WCI  -2
BEATRICE       CLEAR     13   1  61 NE6       30.45S WCI   3
FALLS CITY     CLEAR     14   0  53 NE7       30.46S WCI   4

...NORTHERN KANSAS...

CITY           SKY/WX    TMP DP  RH WIND       PRES   REMARKS
GOODLAND       CLEAR     16  10  77 W9        30.30F WCI   4
HILL CITY      MOCLDY    12   3  67 W3        30.37F
NORTON         CLEAR     12   1  62 N6        30.36S WCI   3
PHILLIPSBURG   CLEAR     19   9  63 NE8       30.40R WCI   9
SMITH CENTER   CLEAR     16   3  57 NE13      30.42R WCI   2
BELOIT         CLEAR     14   5  67 NE7       30.43S WCI   4
HAYS           CLEAR     16   0  48 W3        30.38S
RUSSELL        CLEAR     15   4  61 SW6       30.38S WCI   6
CONCORDIA      CLEAR     16   4  59 NE7       30.43S WCI   6
SALINA         CLEAR     18   6  59 NW3       30.44R
TOPEKA         CLEAR     20   4  50 N10       30.45R WCI   9



USA.gov is the U.S. government's official web portal to all federal, state and local government web resources and services.